Presure
146 150 154 133 126 130 135 154 136 146 136 110 157 199 133 314 129 135 300 153 284 306 295 331 403 300 297 291 275 275 282 277 268 279 278 284 285 288 281 279 286 270 284 261
138 153 147 132 134 128 141 103 162 122 189 163 149 118 115 113 206 151 300 286 287 281 296 290 308 338 282 287 277 272 279 282 285 283 258 261 269 268 271 250 282 278 283 292
140 145 146 126 153 125 142 141 139 129 179 172 203 160 417 111 331 228 133 295 289 283 273 287 287 279 327 304 292 279 277 271 269 269 271 277 274 275 278 270 278 294 296 291
141 141 132 138 133 132 131 142 147 128 140 168 191 149 153 166 172 132 257 303 294 286 278 272 277 291 276 272 291 315 285 278 278 271 276 276 298 314 309 305 306 330 315 331
138 146 145 147 124 140 96 141 157 133 116 223 181 157 157 186 153 314 153 304 298 288 280 276 271 265 267 293 282 267 266 276 302 298 294 287 288 281 281 285 289 291 297 302
148 159 125 141 132 126 129 146 138 150 125 129 141 163 280 183 301 160 135 148 304 292 280 278 275 267 263 264 269 283 284 282 270 261 261 263 269 272 275 275 271 273 286 279
180 152 158 136 126 109 116 133 130 123 131 128 149 209 239 463 119 148 217 174 270 273 286 281 245 272 267 263 260 258 265 282 280 277 268 268 263 265 269 264 261 279 274 275
135 129 155 127 154 133 122 129 145 158 177 179 186 122 121 168 111 117 170 325 297 299 292 287 282 276 272 270 265 260 260 260 275 275 285 277 270 262 259 263 265 267 262 271
153 150 163 168 136 120 118 115 135 149 144 149 184 233 170 168 260 116 126 332 321 307 294 289 275 279 275 273 272 269 265 263 261 258 279 282 280 282 283 278 286 288 269 270
155 122 139 163 127 125 110 108 144 131 141 157 139 143 139 252 289 370 115 349 327 306 292 287 285 284 277 272 274 270 271 270 267 266 261 285 277 272 272 269 274 285 288 285
150 202 188 152 128 110 135 139 125 122 135 138 179 116 211 224 270 225 314 303 338 310 188 291 284 284 276 278 271 278 274 273 269 268 269 263 283 279 268 262 255 273 278 279
136 170 162 151 130 142 129 137 120 125 135 119 133 130 153 140 222 178 398 401 357 323 302 292 283 279 281 279 278 281 285 285 278 274 270 268 259 268 288 272 262 255 277 272
167 167 151 129 128 150 91 125 107 132 143 137 135 163 240 132 265 249 238 127 381 336 308 290 284 282 275 269 270 273 275 284 274 271 276 268 262 256 257 277 271 260 253 270
168 133 137 127 127 139 159 123 121 162 122 130 127 188 246 108 176 143 272 204 125 352 322 298 286 281 275 270 271 274 272 267 266 271 286 284 274 271 264 262 268 274 263 249
208 174 125 126 143 145 119 136 152 137 133 196 161 144 250 126 262 260 262 259 317 353 312 315 296 281 273 274 270 264 265 253 250 258 256 264 272 277 277 259 258 261 264 271
126 133 163 119 145 113 148 118 142 130 135 133 95 246 117 250 261 262 262 98 278 386 315 318 305 296 279 274 276 272 266 261 262 261 261 261 265 261 267 264 274 263 252 252
125 170 125 157 156 119 152 162 129 221 124 249 235 201 251 221 244 142 255 265 178 274 378 339 314 301 295 280 278 274 272 267 268 264 261 261 261 258 267 258 257 253 262 264
169 198 122 132 162 125 118 118 131 125 230 237 112 248 164 169 250 260 254 140 271 246 229 338 357 304 304 292 286 282 273 272 277 274 268 271 263 265 264 270 265 258 254 257
180 150 160 156 175 160 117 126 120 125 253 130 241 252 222 223 263 265 238 157 266 266 307 348 331 328 326 330 312 285 281 278 274 273 276 277 270 270 275 271 270 269 266 260
134 126 219 172 148 165 210 131 172 225 221 172 196 254 96 218 105 94 268 263 266 270 273 378 350 328 313 304 312 305 300 303 295 297 300 298 294 294 302 304 302 297 305 271
182 170 124 149 139 142 149 128 211 209 223 206 236 251 257 182 261 257 277 261 153 260 263 366 382 352 327 314 306 298 292 287 283 284 280 284 286 293 312 363 459 567 309 306
158 124 157 155 126 207 189 229 197 225 185 235 222 225 230 246 257 259 247 261 259 224 248 296 392 375 363 341 322 309 298 291 288 283 279 278 286 300 305 366 467 372 363 302
156 117 161 179 213 163 207 133 227 206 221 210 210 244 238 261 167 261 265 243 273 257 240 274 311 370 377 301 351 337 321 307 293 286 283 286 288 293 287 343 344 343 338 338
177 115 181 173 206 210 235 215 215 224 206 221 219 214 242 256 170 260 251 244 244 228 257 111 305 333 306 317 297 347 315 329 312 299 289 285 283 286 285 295 329 330 342 327
166 226 226 195 198 215 213 217 209 172 223 220 232 234 244 268 259 252 262 248 258 295 225 206 308 312 323 310 291 317 344 340 324 309 298 290 278 286 276 276 318 316 325 335
215 204 220 215 231 212 146 216 209 237 235 222 251 141 248 261 253 250 257 256 257 264 302 302 312 326 322 308 340 307 371 336 335 323 307 298 290 286 276 279 297 312 315 325
166 214 208 228 206 226 211 212 221 230 100 229 241 139 264 210 244 247 249 228 231 252 287 308 313 322 330 343 320 341 381 383 386 331 314 306 297 277 282 277 281 301 304 314
Wind_Speed
37 38 40 41 29 24 40 62 24 38 32 23 49 82 30 33 35 40 15 41 15 13 14 22 21 38 44 39 27 31 37 34 23 33 35 37 38 40 38 37 39 49 45 61
37 37 39 40 45 32 51 19 74 27 86 44 29 22 28 32 26 22 10 13 10 9 8 11 15 20 21 38 31 23 27 31 35 36 27 27 28 32 35 38 43 39 43 36
37 36 39 40 46 36 53 43 10 21 86 51 75 42 15 26 15 21 36 10 8 6 5 3 9 10 17 43 44 32 33 29 29 28 30 36 33 37 39 43 38 40 36 44
36 36 35 44 45 47 43 46 41 8 24 69 66 26 42 65 59 35 10 9 9 6 6 4 3 9 14 14 16 27 36 40 38 29 37 40 44 32 29 25 29 32 38 37
38 36 36 40 41 50 21 57 68 10 24 85 61 46 57 86 46 14 33 12 12 11 9 9 9 10 10 12 18 20 22 22 23 22 23 22 15 20 23 22 23 21 27 25
36 33 24 41 45 43 43 57 43 51 13 22 34 52 77 81 11 45 33 34 14 13 14 13 13 13 13 13 12 13 18 21 26 28 28 26 24 28 25 26 29 30 22 33
38 34 34 41 25 26 29 50 34 31 14 13 40 98 74 14 27 29 16 33 13 13 17 18 15 18 17 17 17 18 15 17 20 26 27 26 33 30 28 30 33 27 29 34
40 33 36 38 39 48 41 38 55 72 74 70 73 24 28 69 26 33 28 18 17 18 19 21 22 22 21 21 21 21 20 20 20 22 26 30 34 34 32 33 38 35 36 38
37 37 34 34 39 46 33 10 34 70 42 56 50 91 72 66 17 34 33 20 20 19 19 20 20 23 24 25 26 25 25 24 24 23 22 26 32 31 32 32 34 34 40 42
37 25 38 35 40 46 9 11 25 37 63 77 32 42 38 92 39 14 33 19 21 18 18 20 22 24 25 26 27 28 28 27 25 24 26 26 24 27 27 27 28 28 31 35
36 40 38 39 38 20 20 56 35 14 57 19 75 32 87 79 88 57 39 17 22 20 18 19 20 21 24 27 26 28 29 30 27 27 27 23 24 28 27 28 28 24 28 30
38 35 35 39 40 44 50 49 28 27 53 21 12 28 69 36 79 75 14 18 22 23 21 21 21 22 22 23 24 25 27 29 30 28 27 24 25 24 26 28 27 28 26 27
34 34 33 34 40 41 16 52 24 60 74 46 32 62 70 30 89 69 76 29 24 24 23 23 23 22 23 25 26 24 24 23 24 25 25 25 28 25 25 25 28 28 27 25
38 35 31 36 38 42 45 54 44 64 28 39 52 65 76 31 56 43 106 46 38 26 27 27 26 25 27 29 29 26 22 26 27 27 22 26 29 29 30 30 26 27 28 29
47 40 36 37 38 40 50 49 52 63 62 53 44 75 91 22 98 94 95 70 58 19 25 32 31 31 32 35 35 31 28 27 27 28 27 27 29 26 26 32 31 29 27 27
33 39 40 42 38 41 44 48 59 67 69 65 19 90 21 89 97 103 101 24 101 26 19 28 33 36 37 40 41 35 36 35 35 32 32 32 34 33 30 33 29 32 33 32
35 38 38 37 40 43 47 49 64 75 56 94 87 80 98 60 83 42 106 111 57 102 29 30 31 36 41 42 44 42 43 43 41 40 38 39 37 38 37 36 38 36 34 34
45 52 44 41 40 43 55 56 65 63 77 74 42 99 53 75 92 106 104 50 109 76 27 22 32 33 39 42 46 48 45 47 48 48 44 46 45 44 46 42 41 42 41 40
49 37 34 44 41 41 41 63 54 64 101 64 93 100 89 64 109 106 71 56 111 92 26 25 27 32 33 40 47 47 48 50 50 50 51 51 51 53 55 52 52 50 49 47
42 46 78 41 45 50 68 58 72 79 69 55 86 106 26 64 16 30 111 110 115 118 108 27 29 29 29 34 39 45 50 51 53 57 56 55 58 60 63 61 61 62 60 56
57 55 46 42 56 53 63 48 90 73 86 75 94 106 110 66 107 102 113 107 41 97 96 31 29 32 34 37 38 39 43 47 49 50 53 54 54 53 56 48 40 27 63 58
44 40 39 48 63 85 67 96 79 89 68 106 88 82 90 95 113 107 63 104 94 48 69 43 27 28 32 38 43 44 45 47 48 49 51 51 52 50 43 31 12 22 42 63
42 49 50 62 88 71 83 46 98 91 96 78 86 115 111 119 53 119 122 82 119 91 50 57 66 27 32 31 40 43 47 51 52 53 52 53 52 46 33 24 15 25 50 54
61 35 69 58 83 84 99 88 90 99 78 97 94 75 117 115 53 120 115 95 94 60 105 27 79 56 54 49 37 40 35 48 50 51 51 50 45 40 36 31 18 16 24 53
65 94 95 78 80 89 88 93 86 74 106 100 111 116 125 123 116 118 127 110 120 97 58 62 76 70 57 58 50 52 47 47 48 49 51 51 43 41 34 31 22 21 25 34
92 81 93 91 104 89 68 93 90 115 119 111 119 51 119 120 120 118 118 123 101 138 97 87 82 75 71 60 56 52 51 57 51 49 50 51 50 44 36 32 29 27 25 20
56 92 85 104 85 101 92 93 108 116 21 115 120 43 122 92 119 110 112 73 70 79 111 86 87 83 81 74 70 71 52 46 45 54 51 54 51 44 39 35 31 28 26 27
Wind_Direction
315 320 324 335 316 346 357 330 351 354 331 329 19 357 337 339 354 3 340 6 3 53 77 75 141 204 212 218 227 232 234 236 232 243 245 246 251 253 252 245 250 234 236 232
312 316 320 333 334 342 340 335 332 330 334 25 1 335 335 338 343 344 326 336 348 359 71 113 112 183 211 223 233 233 241 248 248 248 228 232 240 241 244 249 251 250 236 233
308 316 316 329 323 334 332 333 24 350 323 6 3 4 320 340 316 345 353 301 315 316 325 110 150 162 179 221 228 234 243 248 244 241 247 252 246 246 254 243 246 258 252 239
306 314 317 321 329 334 329 340 328 326 22 340 6 2 326 3 353 346 302 262 271 269 277 253 204 180 194 207 207 223 234 239 245 244 256 262 265 256 255 261 254 254 238 241
305 307 310 313 327 324 314 336 327 87 311 346 346 17 15 348 353 304 2 257 242 251 253 247 234 229 212 213 207 223 223 222 225 227 232 233 234 241 247 249 248 244 240 242
296 303 303 314 322 332 333 329 325 330 321 347 7 16 338 351 303 354 334 346 242 247 251 243 244 243 242 235 227 226 225 223 227 232 235 235 239 234 234 238 243 243 238 242
294 297 305 315 315 300 332 332 331 327 294 336 347 338 7 236 324 323 334 351 283 266 247 246 266 245 242 241 242 244 246 247 238 237 235 235 237 239 234 236 242 239 235 238
299 301 301 314 313 321 331 331 323 322 326 331 335 337 331 360 329 324 318 240 246 242 244 245 245 247 248 245 241 243 244 245 249 246 247 241 241 243 244 243 246 238 240 244
287 295 300 307 316 322 333 240 326 318 343 338 359 354 343 1 320 316 324 238 239 241 247 247 251 246 250 253 252 248 247 246 247 252 248 246 247 250 250 249 255 251 246 248
286 299 300 305 312 317 252 333 335 332 334 333 343 349 7 9 333 304 321 240 237 244 254 253 252 251 251 255 257 259 258 255 253 251 252 247 248 244 246 249 255 256 249 248
289 294 301 302 309 326 299 318 328 311 339 305 335 309 341 7 14 344 332 247 233 243 289 252 256 255 255 253 256 253 254 256 256 252 254 255 251 248 247 248 252 261 254 255
283 297 294 299 304 313 312 312 330 346 332 259 358 303 341 351 359 334 295 241 238 238 244 249 256 259 259 256 254 251 250 249 251 254 254 256 260 263 254 257 257 259 260 260
289 286 293 296 302 310 289 318 280 322 316 323 325 344 1 2 10 3 342 324 234 247 253 258 258 254 258 261 262 258 258 256 259 257 255 252 250 253 255 252 251 255 259 266
281 284 294 295 309 304 311 314 333 311 317 329 316 335 1 305 351 341 14 330 329 241 245 255 260 255 258 262 263 258 255 248 250 252 251 249 251 245 246 247 246 245 250 253
297 281 286 292 301 301 310 310 316 314 320 341 333 326 356 283 2 7 13 11 4 267 259 249 252 256 261 259 263 271 266 265 264 259 257 258 257 251 247 254 258 253 248 247
267 286 281 291 300 318 305 319 308 310 311 320 305 348 274 360 356 0 10 305 9 242 284 263 262 253 255 262 262 265 267 270 267 267 264 262 262 260 256 256 247 247 254 254
260 280 277 293 296 309 300 306 304 329 321 335 337 320 349 337 357 318 0 0 354 8 248 255 259 260 258 261 264 265 266 267 267 266 265 265 265 264 261 253 257 255 251 248
277 289 271 275 292 304 301 311 297 309 334 340 313 336 340 321 343 352 360 325 5 355 311 275 255 260 258 259 260 261 263 264 264 265 264 264 264 262 264 262 253 252 251 253
279 269 285 286 296 293 309 292 310 305 328 312 335 339 339 328 345 348 350 336 358 1 291 272 269 267 263 255 257 263 264 265 267 267 267 267 266 268 267 264 262 255 249 246
255 262 301 289 276 295 316 294 313 327 331 310 319 334 298 328 327 313 345 354 356 358 358 271 269 267 262 262 261 257 258 259 263 268 269 270 269 269 268 265 259 254 250 242
284 286 277 287 273 286 292 302 314 325 327 324 332 330 334 328 338 338 341 352 333 355 356 287 275 268 263 262 261 259 258 260 262 262 266 268 268 274 281 288 286 217 241 237
276 285 276 285 283 306 312 316 316 319 310 325 334 325 339 334 335 339 344 348 340 314 347 304 288 288 276 266 262 260 259 259 261 263 266 273 279 287 294 304 325 184 216 232
280 280 291 304 302 298 312 299 314 312 321 327 322 326 334 328 328 336 337 331 340 350 327 336 352 313 287 325 276 268 262 260 259 264 269 274 280 289 282 295 283 231 221 218
292 289 297 301 305 309 306 315 316 317 324 326 326 325 328 329 322 331 340 338 335 315 342 319 343 335 341 334 327 284 283 267 262 261 263 268 274 280 282 291 272 255 245 229
281 290 294 295 304 307 311 313 316 310 318 322 321 326 325 324 330 331 332 332 336 339 317 329 336 336 327 328 325 314 286 276 266 259 258 260 265 269 268 266 271 262 251 241
288 293 296 299 296 306 291 309 317 308 310 321 315 315 322 324 326 334 335 336 337 341 332 333 328 325 328 329 313 315 286 278 266 253 250 251 253 260 260 263 276 269 266 236
292 292 298 293 304 299 307 312 310 309 304 316 316 326 316 326 326 331 332 320 318 327 333 329 327 326 322 315 320 311 293 279 253 253 239 238 240 249 251 255 261 260 257 252